Date,TemperatureHighF,TemperatureAvgF,TemperatureLowF,DewpointHighF,DewpointAvgF,DewpointLowF,HumidityHigh,HumidityAvg,HumidityLow,PressureMaxIn,PressureMinIn,WindSpeedMaxMPH,WindSpeedAvgMPH,GustSpeedMaxMPH,PrecipitationSumIn
2013-1-1,44.4,41.4,38.9,34.3,30.7,25.2,76,66,50,30.01,29.88,1,0,7,0.00
2013-1-2,40.1,34.8,27.3,31.6,23.5,17.0,84,64,42,30.23,29.98,4,0,9,0.00
2013-1-3,37.0,29.8,26.4,23.4,21.4,18.5,86,71,52,30.25,30.15,2,0,6,0.00
2013-1-4,43.7,32.9,23.8,24.9,23.0,21.0,90,69,45,30.20,30.09,6,1,15,0.00
2013-1-5,44.3,36.5,31.0,31.8,25.5,20.8,80,65,47,30.38,30.14,3,0,8,0.00
2013-1-6,52.4,42.7,31.1,33.9,31.6,28.5,92,67,42,30.20,30.01,3,0,9,0.00
2013-1-7,47.7,43.3,29.7,33.0,29.9,26.4,88,60,48,30.42,30.12,4,1,8,0.00
2013-1-8,54.4,40.8,27.6,39.8,33.1,25.1,93,76,49,30.42,30.35,4,0,8,0.00
2013-1-9,58.5,44.7,32.9,48.2,39.2,30.6,95,82,58,30.37,30.21,4,0,7,0.00
2013-1-10,53.2,45.8,38.7,35.1,32.7,29.7,81,61,42,30.58,30.35,4,1,10,0.00
2013-1-11,44.6,40.4,33.4,42.8,37.6,30.2,97,90,79,30.50,30.08,1,0,4,0.03
2013-1-12,55.1,46.0,42.3,48.8,44.0,40.6,98,93,78,30.16,30.08,2,0,4,0.00
2013-1-13,58.1,46.8,43.0,57.6,46.2,42.2,100,98,97,30.13,29.96,2,0,5,0.01
2013-1-14,62.0,56.2,41.7,60.4,52.0,37.3,99,86,64,30.27,29.93,4,1,9,0.11
2013-1-15,41.7,39.8,37.3,40.4,38.7,36.3,97,96,91,30.33,30.16,2,0,6,0.59
2013-1-17,43.6,40.6,37.2,41.8,37.6,34.5,98,89,71,30.12,30.01,1,0,4,0.08
2013-1-18,38.0,34.5,27.6,35.3,23.6,10.9,92,66,34,30.50,29.99,5,1,10,0.00
2013-1-19,54.1,42.1,28.9,32.4,28.9,21.7,81,61,40,30.43,29.97,6,2,13,0.00
2013-1-20,60.4,47.8,38.3,34.6,26.8,14.0,65,46,24,30.07,29.81,6,2,13,0.00
2013-1-21,43.8,36.9,30.7,35.0,23.8,14.5,80,60,41,30.10,29.77,5,1,9,0.00
2013-1-22,32.0,23.2,18.6,15.2,2.6,-2.4,53,41,31,30.28,29.90,7,3,15,0.00
2013-1-23,26.3,21.1,13.2,14.4,5.2,1.6,76,51,36,30.34,30.15,5,1,11,0.00
2013-1-24,27.2,21.1,12.6,18.8,11.3,2.7,90,68,36,30.51,30.08,5,1,14,0.01
2013-1-25,24.7,18.8,11.6,19.1,10.7,5.2,91,72,44,30.51,30.07,2,0,7,0.00
2013-1-26,35.7,27.9,22.1,23.0,21.0,18.9,88,76,57,30.42,30.08,3,0,7,0.05
2013-1-27,37.8,28.3,20.7,25.5,21.7,18.0,90,77,51,30.59,30.42,3,0,6,0.02
2013-1-28,49.1,37.1,28.0,45.1,34.0,24.1,96,89,78,30.51,30.03,4,1,6,0.14
2013-1-29,64.0,52.5,41.8,52.9,47.1,40.2,97,83,66,30.12,29.98,4,1,8,0.00
2013-1-30,71.7,62.7,45.4,63.0,57.8,43.2,97,85,74,29.99,29.26,6,3,20,0.08
2013-1-31,62.9,46.0,29.7,62.2,31.2,15.6,98,58,35,29.92,29.13,9,4,20,0.56
2013-2-1,33.5,28.1,21.4,29.7,15.6,7.0,93,61,41,30.37,29.79,8,2,18,0.00
2013-2-2,32.9,25.6,16.9,27.0,14.4,7.2,92,64,41,30.38,30.00,3,1,9,0.01
2013-2-3,34.6,29.5,22.1,29.9,26.1,20.3,100,87,63,30.00,29.83,5,0,9,0.01
2013-2-4,35.2,30.8,22.5,28.0,19.0,13.2,82,62,50,30.10,29.89,5,1,11,0.00
2013-2-5,40.7,35.1,29.9,33.3,28.7,25.0,92,78,65,29.93,29.84,1,0,5,0.00
2013-2-6,46.9,37.3,30.0,33.3,29.1,25.9,95,75,49,30.30,29.92,4,1,10,0.00
2013-5-8,57.4,57.2,57.1,56.7,56.5,56.4,98,98,97,29.96,29.94,0,0,5,0.11
2013-5-9,72.9,64.7,53.9,64.2,59.5,53.4,99,84,63,29.98,29.92,1,0,4,0.01
2013-5-10,81.7,68.6,55.2,66.4,60.6,54.3,99,78,50,30.00,29.86,2,0,6,0.19
2013-5-11,78.5,69.2,62.9,69.4,64.2,61.7,98,86,60,29.92,29.68,1,0,5,0.54
2013-5-12,64.7,60.6,53.7,62.9,47.0,32.6,97,66,31,30.01,29.71,3,1,9,0.09
2013-5-13,59.6,52.5,42.9,41.0,33.9,26.9,86,52,29,30.14,30.00,3,0,9,0.00
2013-5-23,74.5,71.8,68.8,70.2,69.1,65.4,95,91,86,29.78,29.74,1,0,5,0.22
2013-5-24,68.8,58.4,51.4,65.1,51.6,36.4,97,79,55,30.12,29.71,3,1,10,0.02
2013-5-25,65.3,55.6,45.5,44.5,39.3,35.2,74,55,37,30.15,30.05,2,1,13,0.00
2013-5-26,70.4,59.2,45.9,48.5,41.9,36.4,86,56,30,30.20,30.10,2,0,7,0.00
2013-5-27,70.8,60.0,48.0,58.0,49.7,43.4,92,71,43,30.26,30.17,0,0,2,0.00
2013-5-28,82.0,69.2,58.9,71.6,63.1,51.7,96,82,64,30.19,30.05,1,0,5,0.24
2013-5-29,87.3,75.9,66.1,76.2,69.4,64.9,98,82,57,30.11,30.05,0,0,3,0.00
2013-5-30,89.8,78.8,68.8,75.3,69.9,64.8,89,75,55,30.17,30.09,1,0,5,0.00
2013-5-31,74.9,73.9,73.2,68.8,68.3,67.8,85,83,81,30.04,30.03,0,0,0,0.00
2013-6-1,89.6,79.0,69.3,74.0,69.8,65.6,90,75,57,30.03,29.91,1,0,5,0.00
2013-6-2,86.4,77.2,69.8,74.9,69.8,66.3,97,79,61,29.92,29.82,2,0,6,0.07
2013-6-3,77.3,70.2,66.8,72.9,68.7,65.9,99,95,81,29.92,29.79,1,0,4,1.51
2013-6-4,73.5,65.0,56.5,66.2,56.2,47.9,98,76,41,30.10,29.92,1,0,4,0.01
2013-6-5,76.9,66.3,54.6,63.3,58.0,53.5,98,77,53,30.16,30.05,0,0,3,0.00
2013-6-6,73.9,67.4,59.1,66.2,62.1,56.0,97,84,71,30.08,29.85,1,0,7,0.23
2013-6-7,70.8,69.1,66.4,70.3,68.6,65.8,100,98,97,29.85,29.53,1,0,6,1.64
2013-6-8,76.4,68.5,64.7,69.3,66.2,64.3,99,93,70,30.07,29.65,1,0,5,0.03
2013-6-9,79.3,71.7,64.4,71.8,67.6,63.8,99,88,60,30.17,30.07,1,0,4,0.00
2013-6-10,77.0,73.1,68.9,75.6,71.7,68.0,99,95,88,30.08,29.79,2,0,5,1.49
2013-6-11,81.4,73.6,68.0,72.7,68.7,65.3,99,86,63,29.83,29.74,1,0,5,0.00
2013-6-12,85.6,76.4,66.8,76.0,69.6,63.8,93,80,62,29.84,29.76,1,0,8,0.00
2013-6-13,85.8,74.9,69.7,75.4,70.2,60.3,97,86,65,29.79,29.42,2,0,14,0.22
2013-6-14,74.5,67.3,59.9,64.7,59.1,54.4,95,76,53,29.95,29.55,1,0,8,0.05
2013-6-15,81.8,70.0,59.2,67.6,61.2,57.5,96,76,47,30.06,29.94,1,0,5,0.00
2013-6-16,82.6,72.7,64.0,72.9,67.2,60.8,95,83,63,30.01,29.86,1,0,4,0.00
2013-6-17,83.4,75.8,70.4,76.3,71.3,68.0,95,86,68,29.94,29.86,0,0,4,0.02
2013-6-18,76.0,70.9,64.3,73.8,69.8,63.7,98,96,91,29.90,29.77,1,0,5,3.77
2013-6-19,65.3,64.1,63.3,63.2,62.4,61.9,96,94,93,30.14,30.11,0,0,0,0.00
2013-6-20,78.7,69.3,59.9,64.7,61.4,56.7,99,78,52,30.26,30.14,0,0,4,0.00
2013-6-21,77.4,68.5,56.2,67.4,61.1,54.5,97,79,49,30.29,30.22,0,0,2,0.00
2013-6-22,83.1,72.5,61.3,70.6,66.1,60.2,98,81,62,30.24,30.14,0,0,2,0.00
2013-6-23,79.0,72.5,66.8,75.8,70.8,65.3,98,94,86,30.17,30.06,0,0,1,0.24
2013-6-24,89.3,76.6,70.3,79.2,73.1,69.4,99,90,63,30.11,30.00,0,0,3,0.06
2013-6-25,88.4,78.0,68.0,78.8,72.8,65.2,99,85,64,30.03,29.87,3,0,6,0.00
2013-6-26,89.8,77.8,68.0,80.1,72.6,65.7,96,84,64,29.94,29.77,1,0,5,0.01
2013-6-27,84.3,74.9,69.5,76.8,71.9,68.2,97,91,76,29.82,29.60,1,0,4,0.22
2013-6-28,86.9,74.8,69.8,77.6,72.0,69.1,99,92,67,29.62,29.47,2,0,6,2.41
2013-6-29,85.0,74.2,67.9,75.4,70.7,67.3,99,90,63,29.61,29.50,0,0,2,0.01
2013-7-12,71.2,70.6,70.2,70.9,70.2,69.7,99,98,98,30.00,29.95,0,0,1,1.52
2013-7-13,82.3,74.9,67.5,77.2,72.8,67.1,100,93,82,30.26,29.99,0,0,4,0.01
2013-7-14,85.9,78.9,73.2,79.2,75.4,71.7,99,89,74,30.32,30.25,0,0,4,0.00
2013-7-15,90.4,79.7,71.6,80.8,75.6,71.0,99,88,62,30.29,30.16,0,0,2,0.00
2013-7-16,91.0,81.2,74.5,79.4,75.9,73.6,98,85,59,30.21,30.13,0,0,1,0.00
2013-7-17,91.9,81.0,73.0,80.3,75.7,72.1,98,85,56,30.18,30.07,0,0,1,0.00
2013-7-18,92.5,82.6,74.1,83.2,78.3,73.2,98,88,65,30.10,29.98,0,0,2,0.00
2013-7-19,93.3,84.0,77.0,82.2,78.6,75.5,96,85,62,30.00,29.85,0,0,4,0.04
2013-7-20,89.8,82.2,77.3,81.1,77.6,75.4,95,86,69,29.88,29.77,1,0,2,0.00
2013-7-21,89.4,79.5,73.0,79.5,74.7,71.8,97,86,63,29.92,29.85,1,0,4,0.00
2013-7-22,85.2,78.2,71.9,79.1,75.0,71.0,98,90,79,29.91,29.75,0,0,4,0.00
2013-7-23,86.4,78.0,71.7,76.7,74.1,69.7,99,89,66,29.75,29.62,1,0,2,0.16
2013-7-24,80.5,74.7,69.6,74.6,70.7,64.4,98,88,73,29.88,29.66,0,0,4,0.00
2013-7-25,76.1,69.8,63.5,67.9,63.4,57.7,94,80,70,30.01,29.88,0,0,5,0.00
2013-7-26,80.0,71.1,64.1,70.3,65.7,62.6,96,84,63,30.07,30.00,0,0,4,0.00
2013-7-27,81.9,73.5,66.1,74.0,69.7,64.9,99,89,73,30.05,29.92,1,0,5,0.04
2013-7-28,83.5,74.3,68.9,77.1,71.6,67.7,97,92,76,29.95,29.85,0,0,2,0.03
2013-7-29,80.6,71.3,64.1,70.1,63.9,57.7,97,80,47,30.14,29.95,0,0,5,0.00
2013-7-30,79.7,69.8,60.3,69.5,63.7,58.5,96,82,55,30.21,30.12,1,0,2,0.00
2013-7-31,80.2,72.0,65.2,72.8,68.1,63.7,98,88,69,30.14,30.01,0,0,1,0.00
2013-8-1,77.1,71.9,68.3,75.3,70.9,67.2,99,97,91,30.01,29.78,0,0,1,0.62
2013-8-2,81.7,73.7,66.7,73.7,69.4,66.1,99,87,66,29.95,29.83,0,0,2,0.00
2013-8-3,78.3,70.9,66.4,72.0,68.2,65.4,98,91,76,29.96,29.90,0,0,2,0.01
2013-8-4,79.6,70.9,61.5,67.9,63.6,58.3,97,80,52,30.01,29.88,1,0,6,0.00
2013-8-5,78.1,67.5,59.4,65.0,60.9,57.1,95,81,56,30.09,30.00,0,0,5,0.00
2013-8-6,72.0,68.1,63.1,69.4,66.1,60.8,97,94,89,30.07,29.99,0,0,1,0.11
2013-8-7,80.1,73.8,69.1,75.8,71.7,67.8,97,93,84,30.07,29.99,0,0,2,0.04
2013-8-8,83.4,77.4,73.1,78.1,74.5,71.6,96,91,79,30.03,29.96,0,0,4,0.00
2013-8-9,88.7,80.6,75.5,80.2,76.5,74.3,98,88,71,29.97,29.83,2,0,4,0.77
2013-8-13,74.2,71.2,70.5,71.4,69.9,69.5,98,96,90,29.78,29.77,2,0,9,0.35
2013-8-14,73.4,66.2,58.9,69.9,59.3,53.4,98,80,56,30.08,29.78,1,0,9,0.00
2013-8-15,73.7,63.7,55.5,62.8,57.5,54.0,97,82,55,30.17,30.07,0,0,9,0.00
2013-8-16,76.1,65.3,55.8,65.8,59.5,53.8,100,83,49,30.19,30.11,0,0,9,0.00
2013-8-17,75.4,67.9,59.3,68.0,63.0,58.3,99,85,63,30.25,30.17,0,0,9,0.00
2013-8-18,70.4,66.9,61.9,68.6,65.2,60.5,99,94,84,30.20,30.14,0,0,9,0.33
2013-8-19,72.4,66.9,62.7,69.2,65.5,62.1,99,95,87,30.17,30.06,0,0,9,0.00
2013-8-20,83.5,72.1,63.7,75.1,69.2,63.1,100,91,73,30.16,30.07,0,0,9,0.00
2013-8-21,75.5,70.7,69.2,74.0,69.9,68.6,99,97,95,30.16,30.07,0,0,9,0.09
2013-8-22,84.7,75.8,69.8,77.0,72.4,69.2,99,90,69,30.08,29.91,0,0,2,0.13
2013-8-23,75.7,70.6,62.9,72.1,68.0,60.5,98,92,82,30.09,29.91,0,0,1,0.00
2013-8-24,79.2,69.0,60.5,69.2,64.2,59.6,98,86,62,30.32,30.08,0,0,4,0.00
2013-8-25,77.1,67.5,60.1,66.5,60.6,53.3,99,81,47,30.41,30.26,0,0,1,0.00
2013-8-26,83.4,70.2,60.0,71.8,64.6,58.7,96,83,57,30.29,29.99,0,0,2,0.00
2013-8-27,86.3,75.7,68.8,78.0,71.4,66.4,97,87,69,30.00,29.86,1,0,4,0.00
2013-8-28,80.0,73.8,70.7,77.0,72.6,-99.9,99,96,86,29.90,29.81,0,0,1,0.36
2013-8-29,80.2,74.2,69.9,74.4,72.1,68.1,99,93,76,30.01,29.81,0,0,2,0.01
2013-8-30,82.4,73.2,65.4,75.1,69.9,64.6,99,90,73,30.03,29.89,0,0,4,0.00
2013-8-31,87.2,77.5,70.9,77.5,73.3,69.6,97,88,69,29.91,29.78,1,0,4,0.00
2013-9-1,86.8,77.5,69.3,79.2,73.9,68.4,99,89,71,29.83,29.74,0,0,3,0.00
2013-9-2,84.9,77.0,72.0,78.8,74.5,71.4,99,92,74,29.79,29.70,0,0,2,0.06
2013-9-3,82.7,74.9,65.0,73.4,68.7,60.8,98,83,54,29.94,29.70,1,0,5,0.00
2013-9-4,79.0,67.8,58.8,67.9,61.5,57.1,96,82,54,30.06,29.93,0,0,1,0.00
2013-9-5,82.8,69.8,60.8,69.6,63.1,55.9,98,81,56,30.10,29.98,1,0,4,0.00
2013-9-6,73.4,65.4,59.4,60.8,56.1,51.1,91,73,54,30.24,30.10,0,0,0,0.00
2013-9-7,76.4,65.2,54.6,68.0,60.9,53.5,99,87,62,30.13,29.92,0,0,0,0.00
2013-9-8,84.9,72.4,63.6,72.7,66.8,62.4,98,84,56,30.02,29.84,0,0,0,0.00
2013-9-9,75.6,69.7,62.4,69.6,62.8,53.8,94,79,64,30.19,30.02,0,0,0,0.00
2013-9-10,87.5,76.6,69.4,78.2,72.8,68.4,98,89,69,30.17,30.07,0,0,0,0.00
2013-9-11,90.1,79.2,72.2,78.6,74.1,71.1,97,86,59,30.13,29.99,0,0,0,0.00
2013-9-12,88.8,76.1,70.8,77.7,71.7,68.4,98,87,64,29.99,29.72,1,0,11,0.82
2013-9-13,75.6,69.2,63.1,70.5,63.6,55.0,100,84,51,29.90,29.67,0,0,0,0.01
2013-9-14,68.2,59.8,52.1,56.4,52.1,49.0,94,77,53,30.14,29.89,0,0,0,0.00
2013-9-15,73.9,61.1,49.4,62.0,55.0,48.3,99,82,50,30.23,30.08,0,0,0,0.00
2013-9-16,69.2,63.7,57.5,63.8,60.9,55.8,95,91,76,30.21,30.03,0,0,0,0.01
2013-9-17,64.4,57.5,51.1,56.4,50.7,43.8,96,79,49,30.41,30.21,0,0,0,0.00
2013-9-18,67.2,55.5,46.7,56.3,50.2,45.6,99,84,53,30.33,30.18,0,0,0,0.00
2013-9-19,72.0,60.9,50.8,62.4,56.3,49.7,100,86,64,30.19,30.07,0,0,0,0.00
2013-9-20,75.7,64.1,54.8,65.3,59.5,53.7,100,86,67,30.08,29.96,0,0,0,0.00
2013-9-21,76.3,66.5,58.8,68.3,63.2,57.7,98,90,67,29.97,29.68,0,0,0,0.58
2013-9-22,71.0,63.4,55.3,63.3,59.2,52.4,99,87,58,29.92,29.70,0,0,0,0.06
2013-9-23,63.9,56.0,50.0,54.2,50.1,45.7,95,82,56,30.07,29.92,1,0,4,0.00
2013-9-24,68.6,56.1,46.6,59.1,50.6,45.5,98,84,52,30.09,29.92,1,0,7,0.00
2013-9-25,70.3,58.2,49.5,61.3,54.0,48.4,98,87,56,29.97,29.87,1,0,2,0.00
2013-9-26,71.4,61.5,54.6,62.3,57.0,53.1,100,87,57,30.06,29.90,1,0,5,0.00
2013-9-27,69.7,61.7,56.4,61.0,58.0,55.3,98,88,67,30.23,30.06,1,0,4,0.00
2013-9-28,68.9,61.3,55.3,61.5,57.4,54.0,98,87,66,30.29,30.20,1,0,6,0.00
2013-9-29,71.0,60.9,54.0,62.0,56.9,53.0,98,88,60,30.20,30.05,1,0,5,0.00
2013-9-30,71.3,59.7,51.5,60.8,55.3,50.4,99,86,64,30.08,29.97,1,0,5,0.00
2013-10-1,78.3,63.7,54.7,67.9,60.5,53.6,97,90,64,30.06,29.95,0,0,2,0.00
2013-10-2,81.1,67.4,57.2,69.8,62.8,56.4,99,86,57,30.07,29.98,1,0,4,0.00
2013-10-3,78.5,68.4,59.6,71.9,65.1,58.7,98,90,72,30.10,30.03,0,0,1,0.00
2013-10-4,82.6,70.5,61.0,72.7,66.6,60.0,99,89,67,30.07,29.99,1,0,2,0.00
2013-10-5,82.9,71.9,64.1,73.1,68.1,63.3,99,88,67,30.07,29.99,0,0,1,0.00
2013-10-6,85.8,73.4,65.5,74.2,68.3,64.3,98,85,57,30.02,29.92,1,0,6,0.00
2013-10-9,56.8,56.1,55.8,54.9,54.7,54.4,96,95,92,30.20,30.17,0,0,5,0.17
2013-10-10,59.1,57.3,55.8,58.5,56.7,54.6,99,98,95,30.17,29.93,1,0,5,0.86
2013-10-11,63.5,61.5,58.6,63.2,61.2,58.3,99,99,99,29.96,29.88,0,0,4,1.55
2013-10-12,63.5,61.8,60.3,63.2,61.3,59.7,99,98,94,30.13,29.94,0,0,1,0.46
2013-10-13,63.0,61.1,59.3,61.6,59.4,56.6,99,94,87,30.31,30.11,1,0,5,0.06
2013-10-14,65.2,59.6,53.8,59.5,56.5,53.0,97,89,77,30.32,30.22,1,0,5,0.00
2013-10-15,67.8,59.2,51.0,62.0,55.9,50.4,99,89,68,30.23,30.06,0,0,4,0.00
2013-10-16,67.6,63.0,58.9,64.6,61.1,57.8,98,94,87,30.07,29.91,0,0,1,0.00
2013-10-17,72.1,65.9,60.2,67.9,63.5,59.5,99,92,83,29.91,29.72,1,0,3,0.01
2013-10-18,66.4,57.8,49.1,62.1,49.3,45.5,93,75,50,30.00,29.78,1,0,7,0.00
2013-10-19,62.9,56.1,47.4,60.0,53.5,45.8,100,91,72,30.00,29.78,0,0,3,0.11
2013-10-20,61.4,52.7,44.7,56.7,43.0,37.8,97,71,42,30.10,29.83,1,0,8,0.00
2013-10-21,65.4,52.5,42.3,50.5,45.9,41.2,100,80,48,30.15,29.96,2,0,6,0.00
2013-10-22,65.3,56.0,49.8,56.4,50.8,47.6,96,84,62,29.97,29.80,1,0,4,0.00
2013-10-23,56.3,49.5,44.3,48.7,44.2,39.6,98,83,55,29.87,29.63,1,0,6,0.26
2013-10-24,51.4,43.4,36.7,41.0,35.6,30.3,95,76,46,30.12,29.87,2,0,7,0.00
2013-10-25,54.3,43.2,35.1,38.8,35.3,32.7,93,75,48,30.31,30.12,2,0,10,0.00
2013-10-26,56.3,44.2,31.7,38.2,33.9,30.2,96,70,39,30.30,29.93,2,0,6,0.00
2013-10-27,59.3,49.1,38.4,44.3,39.2,35.6,93,71,46,30.14,29.93,2,0,5,0.00
2013-10-28,62.0,50.4,42.0,51.1,45.2,39.6,96,83,62,30.27,30.13,1,0,4,0.00
2013-10-29,61.1,50.9,43.8,51.2,46.7,42.7,98,87,60,30.36,30.26,2,0,4,0.00
2013-10-30,62.3,55.9,50.4,58.1,54.1,49.3,99,94,84,30.32,30.14,0,0,3,0.04
2013-10-31,69.6,61.7,54.0,62.3,58.6,53.1,99,90,75,30.18,29.79,1,0,4,0.00
2013-11-1,71.4,67.3,59.1,65.8,62.7,58.0,98,86,74,29.79,29.58,3,0,9,0.04
2013-11-2,69.7,58.5,48.2,61.6,51.7,44.6,99,81,46,29.86,29.61,1,0,6,0.02
2013-11-3,56.0,47.8,41.1,45.1,37.7,27.7,94,71,35,30.43,29.86,3,0,7,0.00
2013-11-4,45.0,39.5,31.8,32.8,28.4,24.3,84,65,45,30.62,30.43,1,0,8,0.00
2013-11-5,58.0,48.2,36.8,50.0,43.2,32.4,93,83,70,30.59,30.46,1,0,2,0.00
2013-11-6,66.4,57.4,49.7,55.7,51.8,47.8,95,82,65,30.46,30.06,2,0,6,0.00
2013-11-7,65.9,56.6,46.3,60.3,49.7,27.0,97,79,46,30.06,29.83,4,1,12,0.00
2013-11-8,51.5,42.7,33.7,32.6,28.9,24.1,89,60,35,30.31,30.06,5,1,10,0.00
2013-11-9,54.3,42.7,29.8,35.3,30.9,27.2,92,66,41,30.35,30.02,2,0,7,0.00
2013-11-10,64.6,51.1,40.7,40.0,33.4,28.9,76,53,31,30.21,29.92,5,1,12,0.00
2013-11-11,57.0,46.5,33.1,37.2,33.1,28.6,88,61,39,30.30,30.00,2,0,6,0.00
2013-11-12,51.6,42.2,30.6,40.8,27.5,16.5,74,56,42,30.38,29.95,4,1,10,0.00
2013-11-13,43.3,34.0,28.3,25.5,22.4,19.3,83,64,40,30.45,30.37,4,1,12,0.00
2013-11-14,57.7,39.1,26.7,29.7,24.2,21.0,84,59,25,30.39,30.22,2,0,4,0.00
2013-11-15,57.4,44.6,32.8,41.3,31.5,26.1,85,61,36,30.27,30.18,1,0,4,0.01
2013-11-16,52.0,49.0,44.1,51.0,48.0,41.2,100,96,86,30.31,30.22,0,0,2,0.24
2013-11-17,65.9,57.0,49.8,60.8,55.0,49.3,99,94,79,30.23,29.75,2,0,5,0.01
2013-11-18,69.4,60.4,51.4,64.3,44.1,28.9,97,61,25,29.91,29.68,7,2,17,0.13
2013-11-19,51.3,45.1,37.1,33.5,29.5,27.6,77,55,44,30.35,29.90,5,1,11,0.00
2013-11-20,44.9,38.7,31.8,34.0,29.9,26.7,87,71,58,30.55,30.35,2,0,6,0.00
2013-11-21,51.5,42.2,32.4,43.2,38.0,30.2,95,85,71,30.55,30.38,1,0,2,0.00
2013-11-22,63.4,54.5,43.8,56.0,50.6,41.7,97,87,70,30.38,29.97,4,0,8,0.03
2013-11-23,56.1,46.5,33.7,54.3,30.7,16.1,97,56,32,30.17,29.98,6,2,15,0.00
2013-11-24,33.6,28.8,25.4,16.5,9.4,5.5,58,44,32,30.51,30.17,7,3,17,0.00
2013-11-25,37.4,29.1,20.2,20.1,14.1,10.6,80,55,34,30.58,30.35,2,0,6,0.00
2013-11-26,57.6,39.7,34.2,57.3,32.5,15.1,99,78,41,30.35,29.50,8,1,13,0.97
2013-11-27,60.2,40.5,36.6,59.9,38.8,30.0,99,94,73,29.78,29.47,5,2,11,0.72
2013-12-1,38.8,36.8,36.1,35.0,34.1,33.5,92,90,86,30.05,30.01,0,0,0,0.00
2013-12-2,47.8,42.4,36.3,42.4,38.3,34.1,100,86,74,30.01,29.86,2,0,4,0.00
2013-12-3,53.1,44.3,39.0,41.2,38.3,36.1,95,81,58,29.98,29.86,1,0,4,0.00
2013-12-4,56.9,48.2,40.2,50.8,45.5,37.8,97,91,76,30.08,29.98,1,0,5,0.00
2013-12-5,67.9,58.7,49.2,63.0,56.5,48.3,99,93,79,30.07,29.92,3,1,6,0.00
2013-12-6,65.7,53.3,39.3,63.6,52.0,38.3,97,95,91,30.14,29.88,4,1,10,0.49
2013-12-7,44.1,38.0,30.3,38.3,33.6,27.2,97,85,64,30.52,30.10,4,1,8,0.31
2013-12-8,33.2,31.3,29.0,32.4,27.9,22.6,97,87,67,30.56,30.25,2,0,5,0.00
2013-12-9,36.2,34.1,33.0,35.6,33.4,32.2,98,97,96,30.27,30.01,1,0,2,0.11
2013-12-10,36.7,33.2,27.9,35.0,31.9,26.4,98,95,81,30.22,29.96,2,0,6,0.14
2013-12-11,41.6,30.4,22.3,29.1,24.8,20.8,96,82,46,30.41,30.22,3,0,8,0.05
2013-12-12,32.0,27.6,21.7,25.6,18.0,12.1,93,68,45,30.42,30.24,3,1,8,0.00
2013-12-13,41.9,32.5,21.8,29.1,20.4,16.6,89,63,37,30.30,30.21,4,1,7,0.02
2013-12-14,42.5,37.4,31.2,41.9,34.9,27.1,98,91,79,30.32,29.67,3,0,6,0.75
2013-12-15,47.7,39.0,29.1,39.7,32.9,24.8,98,80,57,29.94,29.62,6,1,12,0.02
2013-12-16,36.6,33.3,28.9,29.1,26.3,23.2,90,76,61,30.19,29.93,2,0,5,0.00
2013-12-17,40.1,36.2,33.8,36.7,32.4,27.1,95,86,75,30.16,29.92,1,0,5,0.02
2013-12-18,40.7,33.4,27.9,32.5,27.2,21.9,97,80,51,30.22,29.97,5,1,12,0.01
2013-12-19,60.4,42.0,26.3,33.6,28.7,23.5,91,64,33,30.20,30.07,4,1,9,0.00
2013-12-21,67.5,66.6,65.9,62.2,59.6,57.4,86,78,70,29.95,29.92,4,2,8,0.00
2013-12-22,72.2,65.3,60.0,65.7,62.0,58.7,97,89,79,30.03,29.83,7,2,13,0.36
2013-12-23,64.0,55.7,40.9,63.4,52.7,30.8,99,90,67,30.21,29.92,4,1,12,0.38
2013-12-24,41.0,35.3,25.7,31.9,23.6,9.4,89,63,43,30.45,30.17,5,2,11,0.00
2013-12-25,31.2,25.7,21.3,23.1,16.0,11.4,92,67,51,30.56,30.39,2,0,6,0.00
2013-12-26,44.5,31.1,22.4,27.6,24.1,20.2,94,77,48,30.39,30.22,3,0,6,0.00
2013-12-27,45.7,29.5,24.7,27.7,23.6,22.2,93,81,42,30.43,30.34,3,0,6,0.00
2013-12-29,51.5,48.1,46.3,51.2,46.8,43.4,99,95,89,29.76,29.51,6,2,12,0.82
2013-12-30,47.6,41.4,34.7,42.9,34.8,27.3,98,78,65,30.17,29.92,4,1,6,0.00
2014-1-1,45.5,40.0,32.4,35.0,32.3,26.1,92,75,56,30.42,30.13,3,1,8,0.00
2014-1-2,38.3,34.5,31.0,36.5,32.9,29.2,100,94,91,30.13,29.57,2,0,4,0.06